This is the latest recevied weather packets stored in our database for station/object VE8SKI. If no packets are shown the sender has not sent any weather packets the latest 1 day(s).
| Time | Temp. | Humidity | Pressure | Rain* | Wind** | Luminosity | Snow |
|---|---|---|---|---|---|---|---|
| 1778075019 | 3.33° C | 50% | 1014.7 hPa | 0 mm | 4.47 m/s, 125° | - | - |
| 1778074120 | 3.33° C | 51% | 1014.9 hPa | 0 mm | 3.13 m/s, 242° | - | - |
| 1778073818 | 3.33° C | 50% | 1014.9 hPa | 0 mm | 4.47 m/s, 201° | - | - |
| 1778071718 | 2.78° C | 52% | 1015.4 hPa | 0 mm | 4.47 m/s, 255° | - | - |
| 1778071119 | 2.78° C | 53% | 1015.5 hPa | 0 mm | 5.36 m/s, 211° | - | - |
| 1778070520 | 2.78° C | 53% | 1015.5 hPa | 0 mm | 4.92 m/s, 256° | - | - |
| 1778069918 | 2.78° C | 53% | 1015.6 hPa | 0 mm | 0 m/s | - | - |
| 1778069319 | 2.78° C | 53% | 1015.7 hPa | 0 mm | 4.02 m/s, 239° | - | - |
| 1778067818 | 2.78° C | 54% | 1016 hPa | 0 mm | 4.92 m/s, 245° | - | - |
| 1778067219 | 2.78° C | 54% | 1016.1 hPa | 0 mm | 3.58 m/s, 180° | - | - |
| 1778066617 | 2.78° C | 55% | 1016.2 hPa | 0 mm | 4.02 m/s, 195° | - | - |
| 1778066018 | 2.22° C | 56% | 1016.1 hPa | 0 mm | 4.47 m/s, 181° | - | - |
| 1778065718 | 2.78° C | 56% | 1016.2 hPa | 0 mm | 3.58 m/s, 238° | - | - |
| 1778065119 | 2.78° C | 57% | 1016.3 hPa | 0 mm | 4.02 m/s, 166° | - | - |
| 1778064517 | 2.78° C | 56% | 1016.3 hPa | 0 mm | 4.47 m/s, 162° | - | - |
| 1778063918 | 2.78° C | 55% | 1016.4 hPa | 0 mm | 4.02 m/s, 156° | - | - |
| 1778063618 | 2.78° C | 56% | 1016.4 hPa | 0 mm | 4.92 m/s, 173° | - | - |
| 1778063318 | 2.78° C | 55% | 1016.4 hPa | 0 mm | 4.02 m/s, 184° | - | - |
| 1778063016 | 2.78° C | 56% | 1016.4 hPa | 0 mm | 4.47 m/s, 233° | - | - |
| 1778062417 | 2.78° C | 55% | 1016.5 hPa | 0 mm | 4.47 m/s, 205° | - | - |
| 1778062117 | 2.78° C | 56% | 1016.5 hPa | 0 mm | 3.58 m/s, 229° | - | - |
| 1778061818 | 2.78° C | 56% | 1016.6 hPa | 0 mm | 4.02 m/s, 121° | - | - |
| 1778061518 | 2.78° C | 55% | 1016.6 hPa | 0 mm | 4.02 m/s, 172° | - | - |
| 1778061216 | 2.78° C | 55% | 1016.6 hPa | 0 mm | 3.58 m/s, 204° | - | - |
| 1778060617 | 2.78° C | 56% | 1016.7 hPa | 0 mm | 3.13 m/s, 198° | - | - |
* Rain latest hour (hover to see other rain measurements)
** Current wind speed in m/s (hover to see current wind gust speed)